Weather History for Cheyenne, WY

Change the Weather History Date:

Tuesday, November 6, 2012

  Actual Average Record
Temperature  
Mean Temperature 50 °F 39 °F  
Max Temperature 64 °F 51 °F 73 °F (2010)
Min Temperature 35 °F 28 °F 6 °F (1990)
Degree Days  
Heating Degree Days 15 26  
Month to date heating degree days 112 148  
Since 1 July heating degree days 914 1007  
Cooling Degree Days 0 0  
Month to date cooling degree days 0 0  
Year to date cooling degree days 568 348  
Moisture  
Dew Point 25 °F    
Average Humidity 41    
Maximum Humidity 64    
Minimum Humidity 17    
Precipitation  
Precipitation 0.00 in 0.02 in 0.30 in (1885)
Month to date precipitation 0.00 0.12  
Year to date precipitation 9.56 14.98  
Snow  
Snow 0.00 in 0.20 in 5.10 in (1918)
Month to date snowfall 0.0 1.3  
Since 1 July snowfall 10.2 7.6  
Snow Depth 0.00 in    
Sea Level Pressure  
Sea Level Pressure 30.12 in    
Wind  
Wind Speed 9 mph (WNW)    
Max Wind Speed 22 mph    
Max Gust Speed 30 mph    
Visibility 10 miles    
Events      
T = Trace of Precipitation, MM = Missing Value Source: NWS Daily Summary

Daily Weather History Graph

Daily Weather History Graph

Search for Another Location

Airport:

Trip Planner

Search our weather history database for the weather conditions in past years. The results will help you decide how hot, cold, wet, or windy it might be!

Date:

Astronomy

Nov. 06, 2012 Rise Set
Actual Time 6:36 AM MST 4:48 PM MST
Civil Twilight 6:07 AM MST 5:17 PM MST
Nautical Twilight 5:35 AM MST 5:50 PM MST
Astronomical Twilight 5:02 AM MST 6:22 PM MST
Moon 11:30 PM MST (11/6) 12:29 PM MST (11/6)
Length of Visible Light 11h 09m
Length of Day
10h 11m
Waning Gibbous, 52% of the Moon is Illuminated
Nov 6
Waning Gibbous
Nov 6
Last Quarter
Nov 13
New
Nov 20
First Quarter
Nov 28
Full

Hourly Weather History & Observations

Time (MST) Temp. Windchill Dew Point Humidity Pressure Visibility Wind Dir Wind Speed Gust Speed Precip Events Conditions
12:53 AM 44.1 °F 39.5 °F 28.0 °F 53% 30.08 in 10.0 mi West 8.1 mph - 0.00 in   Clear
1:53 AM 43.0 °F 41.3 °F 27.0 °F 53% 30.08 in 10.0 mi WSW 3.5 mph - N/A   Clear
2:53 AM 44.1 °F 38.6 °F 28.0 °F 53% 30.09 in 10.0 mi NW 10.4 mph - N/A   Clear
3:53 AM 45.0 °F 38.2 °F 27.0 °F 49% 30.10 in 10.0 mi NW 15.0 mph - N/A   Clear
4:53 AM 45.0 °F 38.5 °F 28.0 °F 52% 30.12 in 10.0 mi WNW 13.8 mph - N/A   Clear
5:53 AM 37.9 °F 33.5 °F 27.0 °F 65% 30.18 in 10.0 mi East 5.8 mph - N/A   Clear
6:53 AM 37.9 °F - 26.1 °F 62% 30.21 in 10.0 mi Calm Calm - N/A   Clear
7:53 AM 44.1 °F 42.5 °F 27.0 °F 51% 30.21 in 10.0 mi North 3.5 mph - 0.00 in   Clear
8:53 AM 50.0 °F - 27.0 °F 41% 30.17 in 10.0 mi North 6.9 mph - N/A   Clear
9:53 AM 57.0 °F - 25.0 °F 29% 30.14 in 10.0 mi WNW 15.0 mph 25.3 mph N/A   Clear
10:53 AM 60.1 °F - 25.0 °F 26% 30.13 in 10.0 mi WNW 18.4 mph 25.3 mph N/A   Clear
11:53 AM 61.0 °F - 21.0 °F 21% 30.09 in 10.0 mi WNW 13.8 mph - N/A   Clear
12:53 PM 62.1 °F - 18.0 °F 18% 30.08 in 10.0 mi NW 15.0 mph 23.0 mph N/A   Clear
1:53 PM 64.0 °F - 19.9 °F 18% 30.06 in 10.0 mi WNW 12.7 mph 19.6 mph N/A   Clear
2:53 PM 63.0 °F - 19.9 °F 19% 30.06 in 10.0 mi NW 15.0 mph 21.9 mph N/A   Partly Cloudy
3:53 PM 62.1 °F - 21.9 °F 21% 30.06 in 10.0 mi NW 11.5 mph 20.7 mph N/A   Clear
4:53 PM 57.9 °F - 24.1 °F 27% 30.09 in 10.0 mi WNW 6.9 mph - N/A   Clear
5:53 PM 52.0 °F - 28.0 °F 40% 30.17 in 10.0 mi WSW 11.5 mph 18.4 mph 0.00 in   Clear
6:53 PM 48.0 °F - 26.1 °F 42% 30.19 in 10.0 mi WSW 9.2 mph - 0.00 in   Clear
7:53 PM 44.1 °F - 26.1 °F 49% 30.18 in 10.0 mi Calm Calm - N/A   Clear
8:53 PM 42.1 °F - 25.0 °F 51% 30.14 in 10.0 mi Calm Calm - N/A   Clear
9:53 PM 39.0 °F 34.0 °F 26.1 °F 60% 30.12 in 10.0 mi West 6.9 mph - N/A   Clear
10:53 PM 41.0 °F - 25.0 °F 53% 30.08 in 10.0 mi Calm Calm - 0.00 in   Clear
11:53 PM 41.0 °F 37.1 °F 24.1 °F 51% 30.07 in 10.0 mi WSW 5.8 mph - 0.00 in   Clear